Location: Bothwell
(41.7170°N, 112.2589°W)
Time: 04:25:10
(UTC+00:00)

ISS - Visible Passes

Search period start: 15 April 2026 00:00
Search period end: 25 April 2026 00:00
Orbit: 415 x 424 km, 51.6° (Epoch: 14 April)

Date Brightness Start Highest point End Pass type
(mag) Time Alt. Az. Time Alt. Az. Time Alt. Az.
15 Apr -0.8 11:55:35 10° SE 11:56:28 11° SE 11:57:20 10° ESE visible
17 Apr -2.2 11:55:07 10° SSW 11:58:07 31° SE 12:01:09 10° ENE visible
18 Apr -1.5 11:09:19 14° SSE 11:10:52 18° SE 11:13:17 10° E visible
19 Apr -0.9 10:23:55 11° SE 10:23:55 11° SE 10:24:35 10° ESE visible
19 Apr -3.8 11:56:53 12° SW 11:59:57 89° NW 12:03:21 10° NE visible
20 Apr -3.3 11:11:23 33° SSW 11:12:33 54° SE 11:15:52 10° ENE visible
21 Apr -2.2 10:25:49 29° ESE 10:25:49 29° ESE 10:28:13 10° ENE visible
21 Apr -2.7 11:58:49 10° W 12:01:58 36° NNW 12:05:08 10° NE visible
22 Apr -0.6 09:40:10 11° E 09:40:10 11° E 09:40:18 10° E visible
22 Apr -3.4 11:13:07 31° W 11:14:25 54° NNW 11:17:45 10° NE visible
23 Apr -3.4 10:27:23 64° NE 10:27:23 64° NE 10:30:18 10° NE visible
23 Apr -1.7 12:01:28 10° WNW 12:04:07 21° NNW 12:06:47 10° NE visible
24 Apr -1.2 09:41:37 19° ENE 09:41:37 19° ENE 09:42:46 10° ENE visible
24 Apr -2.1 11:14:33 16° WNW 11:16:27 26° NNW 11:19:23 10° NE visible
